This demonstration page uses our WeatherBlox Daily Observations layout. Learn more.

Left ArrowRight Arrow

Hourly Observations for September 11, 2019

Temp ( °F °C ) Dew Point ( °F °C ) Humidity (%) Winds ( mph kmh ) Pressure ( in mb ) Visibility ( mi km ) Precip ( " mm )
12:54 am 00:54 Clear 78 25.6 70 21.1 76 76 S 17 28 29.91 1013 10 16 0.00 0.00
1:54 am 01:54 Clear 76 24.4 69 20.6 79 79 S 16 26 29.91 1013 10 16 0.00 0.00
2:54 am 02:54 Clear 75 23.9 68 20 79 79 S 14 22 29.89 1012 10 16 0.00 0.00
3:54 am 03:54 Clear 74 23.3 68 20 82 82 S 12 19 29.89 1012 10 16 0.00 0.00
4:54 am 04:54 Partly Cloudy 73 22.8 68 20 84 84 S 9 15 29.90 1013 10 16 0.00 0.00
5:54 am 05:54 Mostly Clear 73 22.8 67 19.4 81 81 S 6 9 29.91 1013 10 16 0.00 0.00
6:54 am 06:54 Mostly Cloudy 72 22.2 68 20 87 87 NNE 7 11 29.94 1014 10 16 0.00 0.00
7:54 am 07:54 Cloudy 74 23.3 68 20 82 82 NNE 6 9 29.98 1015 9 14 0.00 0.00
8:15 am 08:15 Cloudy 71 21.7 66 18.9 84 84 NE 13 20 29.98 1015 10 16 0.00 0.00
8:26 am 08:26 Cloudy with Light Rain 71 21.7 66 18.9 84 84 NNE 14 22 29.98 1015 10 16 0.00 0.00
8:54 am 08:54 Cloudy with Thunderstorms 70 21.1 65 18.3 84 84 NE 10 17 29.99 1016 10 16 0.00 0.00
9:15 am 09:15 Mostly Cloudy 70 21.1 65 18.3 84 84 ENE 13 20 29.98 1015 10 16 0.00 0.00
9:54 am 09:54 Mostly Sunny 73 22.8 66 18.9 79 79 ENE 14 22 29.97 1015 10 16 0.00 0.00
10:54 am 10:54 Mostly Sunny 79 26.1 69 20.6 72 72 ESE 8 13 29.96 1015 10 16 0.00 0.00
11:54 am 11:54 Sunny 83 28.3 69 20.6 63 63 S 12 19 29.95 1014 10 16 0.00 0.00
12:54 pm 12:54 Sunny 86 30 70 21.1 59 59 SE 14 22 29.94 1014 10 16 0.00 0.00
1:54 pm 13:54 Sunny 89 31.7 70 21.1 53 53 S 20 31 29.91 1013 10 16 0.00 0.00
3:54 pm 15:54 Sunny 90 32.2 70 21.1 52 52 S 24 39 29.86 1011 10 16 0.00 0.00
4:54 pm 16:54 Sunny 91 32.8 70 21.1 50 50 S 18 30 29.86 1011 10 16 0.00 0.00
5:54 pm 17:54 Sunny 89 31.7 70 21.1 53 53 S 18 30 29.85 1011 10 16 0.00 0.00
6:54 pm 18:54 Sunny 86 30 71 21.7 61 61 SSE 14 22 29.85 1011 10 16 0.00 0.00
7:54 pm 19:54 Clear 83 28.3 70 21.1 65 65 S 16 26 29.84 1010 10 16 0.00 0.00
8:54 pm 20:54 Clear 81 27.2 68 20 65 65 S 13 20 29.86 1011 10 16 0.00 0.00
9:54 pm 21:54 Clear 79 26.1 68 20 69 69 S 14 22 29.86 1011 10 16 0.00 0.00
10:54 pm 22:54 Clear 78 25.6 67 19.4 69 69 S 17 28 29.83 1010 10 16 0.00 0.00
11:54 pm 23:54 Clear 78 25.6 66 18.9 67 67 S 17 28 29.83 1010 10 16 0.00 0.00

Powered by AerisWeather